QPF
0.00 0.00 0.00 0.00 0.00 0.00 0.00 0.00 0.00 0.00 0.00 0.00 0.00 0.00 0.00 0.00 0.00 0.00 0.00 0.00 0.00 0.00
0.00 0.00 0.00 0.00 0.00 0.00 0.00 0.00 0.00 0.00 0.00 0.00 0.00 0.00 0.00 0.00 0.00 0.00 0.00 0.00 0.00 0.00
0.00 0.00 0.00 0.00 0.00 0.00 0.00 0.00 0.00 0.00 0.00 0.00 0.00 0.00 0.00 0.00 0.00 0.00 0.00 0.00 0.00 0.00
0.00 0.00 0.00 0.00 0.00 0.00 0.00 0.00 0.00 0.00 0.00 0.00 0.00 0.00 0.00 0.00 0.00 0.00 0.00 0.00 0.00 0.00
0.00 0.00 0.00 0.00 0.00 0.00 0.00 0.00 0.00 0.00 0.00 0.00 0.00 0.00 0.00 0.00 0.00 0.00 0.00 0.00 0.00 0.00
0.00 0.00 0.00 0.00 0.00 0.00 0.00 0.00 0.00 0.00 0.00 0.00 0.00 0.00 0.00 0.00 0.00 0.00 0.00 0.00 0.00 0.00
0.00 0.00 0.00 0.00 0.00 0.00 0.00 0.00 0.00 0.00 0.00 0.00 0.00 0.00 0.00 0.00 0.00 0.00 0.00 0.00 0.00 0.00
0.00 0.00 0.00 0.00 0.00 0.00 0.00 0.00 0.00 0.00 0.00 0.00 0.00 0.00 0.00 0.00 0.00 0.00 0.00 0.00 0.00 0.00
0.00 0.00 0.00 0.00 0.00 0.00 0.00 0.00 0.00 0.00 0.00 0.00 0.00 0.00 0.00 0.00 0.00 0.00 0.00 0.00 0.00 0.00
0.00 0.00 0.00 0.00 0.00 0.00 0.00 0.00 0.00 0.00 0.00 0.00 0.00 0.00 0.00 0.00 0.00 0.00 0.00 0.00 0.00 0.00
0.00 0.00 0.00 0.00 0.00 0.00 0.00 0.00 0.00 0.00 0.00 0.00 0.00 0.00 0.00 0.00 0.00 0.00 0.00 0.00 0.00 0.00
0.00 0.00 0.00 0.00 0.00 0.00 0.00 0.00 0.00 0.00 0.00 0.00 0.00 0.00 0.00 0.00 0.00 0.00 0.00 0.00 0.00 0.00
0.00 0.00 0.00 0.00 0.00 0.00 0.00 0.00 0.00 0.00 0.00 0.00 0.00 0.00 0.00 0.00 0.00 0.00 0.00 0.00 0.00 0.00
0.00 0.00 0.00 0.00 0.00 0.00 0.00 0.00 0.00 0.00 0.00 0.00 0.00 0.00 0.00 0.00 0.00 0.00 0.00 0.00 0.00 0.00
MSLP
1030.44 1030.62 1030.75 1031.05 1031.34 1031.53 1031.73 1032.05 1032.44 1032.35 1032.24 1032.30 1032.22 1032.06 1031.95 1031.77 1031.68 1031.45 1031.17 1030.90 1030.64 1030.17
1030.35 1030.59 1030.73 1031.10 1031.39 1031.61 1031.92 1032.27 1032.47 1032.44 1032.38 1032.53 1032.49 1032.31 1032.13 1032.04 1032.01 1031.69 1031.51 1031.29 1031.01 1030.72
1029.86 1030.31 1030.62 1031.01 1031.20 1031.51 1031.79 1032.12 1032.32 1032.43 1032.52 1032.56 1032.57 1032.46 1032.31 1032.16 1032.22 1031.93 1031.86 1031.68 1031.31 1031.17
1029.24 1029.86 1030.34 1030.57 1030.84 1031.16 1031.55 1031.87 1032.05 1032.23 1032.40 1032.48 1032.48 1032.48 1032.40 1032.41 1032.46 1032.23 1032.07 1031.92 1031.70 1031.46
1028.88 1029.38 1029.76 1030.06 1030.42 1030.85 1031.25 1031.68 1031.87 1032.12 1032.26 1032.36 1032.43 1032.45 1032.37 1032.35 1032.44 1032.28 1032.12 1032.01 1031.81 1031.64
1028.12 1028.59 1028.96 1029.37 1029.92 1030.47 1030.85 1031.22 1031.55 1031.73 1031.78 1031.92 1032.05 1032.14 1032.21 1032.24 1032.21 1032.13 1032.02 1031.89 1031.75 1031.61
1027.29 1027.51 1028.03 1028.61 1029.24 1029.84 1030.26 1030.62 1030.93 1031.14 1031.34 1031.58 1031.75 1031.91 1031.99 1031.99 1031.95 1031.89 1031.84 1031.80 1031.64 1031.46
1026.49 1027.08 1027.57 1028.00 1028.50 1029.10 1029.57 1029.91 1030.30 1030.65 1030.99 1031.25 1031.48 1031.54 1031.62 1031.64 1031.56 1031.61 1031.60 1031.59 1031.54 1031.35
1025.74 1026.19 1026.59 1027.12 1027.69 1028.27 1028.73 1029.26 1029.80 1030.11 1030.43 1030.74 1031.05 1031.17 1031.31 1031.25 1031.15 1031.23 1031.33 1031.34 1031.26 1031.23
1024.72 1025.22 1025.62 1026.28 1026.92 1027.34 1027.84 1028.52 1029.02 1029.45 1029.81 1030.04 1030.31 1030.59 1030.74 1030.96 1030.87 1030.76 1030.76 1030.99 1031.10 1031.03
1023.94 1024.48 1025.10 1025.64 1025.95 1026.44 1027.05 1027.57 1028.13 1028.63 1029.03 1029.38 1029.62 1030.10 1030.21 1030.43 1030.40 1030.35 1030.41 1030.52 1030.61 1030.72
1023.03 1023.72 1024.31 1024.67 1025.06 1025.66 1026.25 1026.77 1027.18 1027.71 1028.24 1028.64 1028.96 1029.49 1029.62 1029.81 1029.76 1029.80 1029.94 1030.06 1030.17 1030.34
1022.75 1023.34 1023.80 1024.26 1024.77 1025.26 1025.73 1026.15 1026.75 1027.13 1027.61 1028.06 1028.40 1029.04 1029.20 1029.47 1029.45 1029.38 1029.46 1029.45 1029.45 1029.61
1022.39 1022.98 1023.62 1024.23 1024.76 1025.26 1025.63 1025.97 1026.55 1026.89 1027.26 1027.74 1028.13 1028.50 1029.00 1029.10 1029.17 1029.13 1028.92 1028.96 1028.81 1028.75
Thickness
5539 5537 5536 5533 5531 5530 5528 5526 5524 5524 5525 5524 5524 5524 5524 5524 5523 5524 5525 5525 5526 5529
5529 5527 5526 5523 5521 5519 5517 5515 5514 5514 5514 5513 5512 5513 5513 5513 5512 5514 5514 5515 5515 5516
5522 5519 5516 5513 5512 5510 5508 5506 5505 5503 5503 5502 5502 5502 5502 5502 5500 5502 5502 5502 5504 5503
5516 5511 5507 5506 5503 5501 5498 5496 5495 5494 5493 5492 5492 5492 5491 5490 5489 5489 5489 5490 5491 5492
5508 5503 5500 5497 5495 5492 5489 5487 5485 5483 5482 5482 5481 5481 5480 5480 5478 5478 5478 5478 5479 5480
5502 5497 5492 5489 5487 5483 5480 5477 5475 5474 5474 5473 5471 5470 5469 5468 5467 5466 5466 5467 5467 5467
5496 5493 5487 5482 5479 5475 5472 5469 5467 5466 5464 5462 5461 5459 5457 5456 5455 5454 5454 5454 5454 5454
5488 5483 5479 5475 5471 5468 5464 5461 5458 5456 5453 5451 5449 5448 5446 5445 5444 5442 5442 5441 5440 5440
5481 5477 5474 5470 5464 5459 5455 5451 5448 5445 5442 5439 5438 5436 5434 5433 5432 5430 5428 5427 5425 5424
5474 5471 5467 5460 5454 5451 5447 5442 5438 5433 5430 5428 5426 5423 5421 5419 5418 5417 5416 5413 5410 5408
5465 5460 5455 5450 5448 5444 5438 5433 5427 5423 5419 5416 5413 5410 5408 5405 5404 5402 5399 5397 5395 5392
5457 5451 5447 5444 5441 5434 5428 5423 5419 5414 5409 5404 5400 5395 5392 5388 5387 5386 5381 5378 5376 5372
5443 5438 5434 5430 5425 5419 5415 5409 5403 5400 5395 5389 5384 5378 5373 5368 5366 5367 5363 5358 5357 5354
5431 5425 5419 5413 5407 5401 5397 5391 5387 5381 5377 5371 5364 5359 5351 5347 5343 5342 5341 5338 5336 5334